Location: Unspecified
(58.9933°N, 5.6375°E)
Time: 10:18:21
(UTC+02:00)

Cosmos 1674 - Visible Passes

Search period start: 02 August 2015 00:00
Search period end: 12 August 2015 00:00
Orbit: 505 x 531 km, 82.5° (Epoch: 01 August)

Date Brightness Start Highest point End Pass type
(mag) Time Alt. Az. Time Alt. Az. Time Alt. Az.
02 Aug 5.6 02:52:05 10° NNE 02:54:33 16° NE 02:57:06 10° E visible
02 Aug 2.8 04:27:05 10° NNW 04:31:00 88° ENE 04:34:54 10° SSE visible
03 Aug 5.6 02:38:03 10° NNE 02:40:17 15° NE 02:42:36 10° E visible
03 Aug 2.9 04:12:53 10° NNW 04:16:48 78° ENE 04:20:43 10° SSE visible
04 Aug 5.6 02:24:02 10° NNE 02:26:00 14° NE 02:28:03 10° E visible
04 Aug 3.1 03:58:42 10° N 04:02:36 68° ENE 04:06:30 10° SSE visible
05 Aug 5.7 02:10:04 10° NNE 02:11:42 12° NE 02:13:26 10° ENE visible
05 Aug 3.3 03:44:31 10° N 03:48:23 60° ENE 03:52:16 10° SSE visible
06 Aug 5.8 01:56:12 10° NNE 01:57:23 11° NE 01:58:42 10° ENE visible
06 Aug 3.5 03:30:19 10° N 03:34:10 53° ENE 03:38:00 10° SSE visible
07 Aug 5.9 01:42:36 10° NE 01:43:04 10° NE 01:43:40 10° NE visible
07 Aug 3.7 03:16:08 10° N 03:19:56 46° ENE 03:23:43 10° SE visible
08 Aug 3.9 03:01:57 10° N 03:05:41 41° ENE 03:09:26 10° SE visible
08 Aug 3.8 04:37:57 10° NNW 04:41:23 29° W 04:44:47 10° SSW visible
09 Aug 4.1 02:47:46 10° N 02:51:26 37° ENE 02:55:06 10° SE visible
09 Aug 3.6 04:23:39 10° NNW 04:27:12 33° W 04:30:44 10° SSW visible
10 Aug 4.3 02:33:35 10° N 02:37:10 33° ENE 02:40:45 10° SE visible
10 Aug 3.4 04:09:22 10° NNW 04:13:01 37° W 04:16:26 11° SSW visible
11 Aug 4.5 02:19:24 10° N 02:22:52 30° ENE 02:26:23 10° SE visible
11 Aug 3.3 03:55:05 10° NNW 03:58:49 42° W 04:01:53 14° SSW visible
